Content
SEND FEEDBACK

Daily
Averages
Monthly
Summary
United States of America

LYNN, NEBRASKA


Home > North America > United States > Nebraska
Elevation: 1810 feet     Latitude: 40 32N     Longitude: 098 09W

WEATHER
 
SELECT A DAY
Number of Records: 193,895;   Date Range: 1/1/95 - 7/29/14
 
SHARE

PRINT THIS DATA

[ ← Previous Day ]
WEATHER ALMANAC - JANUARY 23, 2013
[ Next Day → ]
[ °C ]   °F
Weather ElementAverageHighLow
Temperature23 °F34 °F (1:53 pm)12.9 °F (11:53 pm)
Dewpoint14.6 °F21 °F (12:53 pm)5 °F (11:53 pm)
Humidity71 %88 % (6:53 am)59 % (1:53 pm)
Barometer30.31 in30.50 in (9:53 pm)30.18 in (5:53 am)
Wind Speed10.7 mph18.4 mph (1:53 pm)
Wind Gust25.3 mph (1:53 pm)
Weather ElementAverage
Visibility10 mi
Wind DirectionESE (105.2 °)

Weather ElementTotal
Precipitation---
Heating Degree Days41.6 (Base 65)
Averaged from 23 records on January 23, 2013
WEATHER CONDITIONS BREAKOUT
WIND DIRECTION BREAKOUT
WEATHER BY HOUR - JANUARY 23, 2013
[ °C ]   °F
Local TimeTemperatureDewpointHumidityBarometerVisibilityWind DirectionWind SpeedGust SpeedPrecipitationEventsConditions
1:53 AM19.9 °F14.0 °F78 %30.21 in10.0 miSSW (210°)8.1 mphClear
2:53 AM21.0 °F14.0 °F74 %30.20 in10.0 miSW (220°)5.8 mphClear
3:53 AM17.1 °F12.9 °F84 %30.21 in10.0 miWest (280°)3.5 mphClear
4:53 AM18.0 °F12.9 °F81 %30.19 in10.0 miWest (260°)4.6 mphClear
5:53 AM19.0 °F14.0 °F81 %30.18 in10.0 miCalmClear
6:53 AM15.1 °F12.0 °F88 %30.22 in10.0 miNW (310°)4.6 mphClear
7:53 AM17.1 °F12.9 °F84 %30.23 in10.0 miNNW (330°)4.6 mphClear
8:53 AM19.0 °F15.1 °F85 %30.25 in10.0 miWest (270°)3.5 mphClear
9:53 AM25.0 °F17.1 °F72 %30.27 in10.0 miNNE (20°)8.1 mphClear
10:53 AM28.9 °F19.0 °F67 %30.29 in10.0 miNNE (30°)11.5 mphClear
11:53 AM32.0 °F19.9 °F61 %30.30 in10.0 miNNE (30°)11.5 mphClear
12:53 PM33.1 °F21.0 °F61 %30.28 in10.0 miNE (40°)16.1 mphClear
1:53 PM34.0 °F21.0 °F59 %30.27 in10.0 miNE (40°)18.4 mph25.3 mphClear
2:53 PM33.1 °F19.9 °F59 %30.28 in10.0 miNE (40°)17.3 mphClear
3:53 PM32.0 °F19.4 °F60 %30.25 in10.0 miNNE (30°)16.1 mphClear
4:53 PM30.0 °F17.1 °F59 %30.35 in10.0 miNE (40°)15.0 mphClear
5:53 PM26.1 °F15.1 °F63 %30.38 in10.0 miNNE (30°)15.0 mph23.0 mphClear
6:53 PM23.0 °F14.0 °F68 %30.43 in10.0 miNE (40°)13.8 mphClear
7:53 PM21.0 °F12.0 °F68 %30.45 in10.0 miNE (40°)13.8 mphClear
8:53 PM19.0 °F10.0 °F68 %30.47 in10.0 miNE (40°)16.1 mphClear
9:53 PM17.1 °F8.1 °F68 %30.50 in10.0 miNE (40°)16.1 mphClear
10:53 PM16.0 °F9.0 °F74 %30.48 in10.0 miNE (40°)10.4 mphClear
11:53 PM12.9 °F5.0 °F71 %30.50 in10.0 miNE (40°)11.5 mphClear
Hourly data recorded from KHSI, located miles away from Lynn, Nebraska







STORIES FROM OUR PARTNERS